| time (UTC) | temp F | wind direction | speed knots | gust knots | rain 1hr in | rain 24hr in | rain mn in | humidity % | barometer mb |
| 20260507211003 | 74 | 260 | 3.5 | 9.6 | 0.00 | 0.10 | 0.00 | 21 | 1011.0 |
| 20260507210502 | 74 | 248 | 1.7 | 10.4 | 0.00 | 0.11 | 0.00 | 23 | 1011.2 |
| 20260507210003 | 74 | 250 | 2.6 | 10.4 | 0.00 | 0.11 | 0.00 | 23 | 1011.4 |
| 20260507205502 | 74 | 237 | 5.2 | 13.0 | 0.00 | 0.11 | 0.00 | 24 | 1011.5 |
| 20260507205003 | 74 | 263 | 6.1 | 13.0 | 0.00 | 0.11 | 0.00 | 23 | 1011.6 |
| 20260507204503 | 74 | 237 | 2.6 | 9.6 | 0.00 | 0.11 | 0.00 | 24 | 1011.9 |
| 20260507204003 | 74 | 299 | 2.6 | 8.7 | 0.00 | 0.11 | 0.00 | 23 | 1012.1 |
| 20260507203502 | 74 | 211 | 3.5 | 10.4 | 0.00 | 0.11 | 0.00 | 24 | 1012.2 |
| 20260507203003 | 73 | 242 | 0.0 | 11.3 | 0.00 | 0.11 | 0.00 | 23 | 1012.5 |
| 20260507202502 | 73 | 235 | 7.8 | 11.3 | 0.00 | 0.11 | 0.00 | 24 | 1012.6 |
| 20260507202003 | 73 | 305 | 1.7 | 9.6 | 0.00 | 0.11 | 0.00 | 22 | 1012.8 |
| 20260507201502 | 73 | 281 | 1.7 | 7.0 | 0.00 | 0.11 | 0.00 | 24 | 1012.9 |
| 20260507201003 | 73 | 242 | 2.6 | 10.4 | 0.00 | 0.11 | 0.00 | 24 | 1013.1 |
| 20260507200523 | 72 | 304 | 2.6 | 10.4 | 0.00 | 0.11 | 0.00 | 20 | 1013.2 |
| 20260507200003 | 73 | 265 | 4.3 | 7.8 | 0.00 | 0.11 | 0.00 | 22 | 1013.4 |
| 20260507195503 | 72 | 264 | 0.9 | 9.6 | 0.00 | 0.11 | 0.00 | 21 | 1013.5 |
| 20260507195003 | 72 | 264 | 0.0 | 9.6 | 0.00 | 0.11 | 0.00 | 21 | 1013.7 |
| 20260507194503 | 71 | 227 | 3.5 | 7.8 | 0.00 | 0.11 | 0.00 | 23 | 1013.7 |
| 20260507194002 | 71 | 232 | 4.3 | 9.6 | 0.00 | 0.11 | 0.00 | 22 | 1013.9 |
| 20260507193503 | 70 | 241 | 2.6 | 9.6 | 0.00 | 0.12 | 0.00 | 20 | 1013.9 |
| 20260507193003 | 69 | 256 | 3.5 | 11.3 | 0.00 | 0.12 | 0.00 | 22 | 1014.0 |
| 20260507192503 | 69 | 271 | 2.6 | 12.2 | 0.00 | 0.12 | 0.00 | 20 | 1014.1 |
| 20260507192002 | 70 | 249 | 7.8 | 12.2 | 0.00 | 0.12 | 0.00 | 22 | 1014.2 |
| 20260507191503 | 70 | 277 | 6.1 | 10.4 | 0.00 | 0.12 | 0.00 | 21 | 1014.4 |
| 20260507191003 | 71 | 303 | 4.3 | 12.2 | 0.00 | 0.13 | 0.00 | 22 | 1014.4 |
| 20260507190503 | 71 | 242 | 6.1 | 12.2 | 0.00 | 0.14 | 0.00 | 21 | 1014.5 |
| 20260507190003 | 71 | 230 | 3.5 | 12.2 | 0.00 | 0.14 | 0.00 | 25 | 1014.6 |
| 20260507185503 | 69 | 224 | 2.6 | 12.2 | 0.00 | 0.15 | 0.00 | 26 | 1014.8 |
| 20260507185024 | 69 | 246 | 5.2 | 11.3 | 0.00 | 0.16 | 0.00 | 25 | 1014.8 |
| 20260507184503 | 68 | 239 | 3.5 | 9.6 | 0.00 | 0.17 | 0.00 | 25 | 1015.0 |
| 20260507184024 | 67 | 255 | 5.2 | 13.9 | 0.00 | 0.18 | 0.00 | 26 | 1015.0 |
| 20260507183502 | 67 | 227 | 2.6 | 13.9 | 0.00 | 0.18 | 0.00 | 26 | 1015.1 |
| 20260507183003 | 66 | 254 | 7.8 | 13.0 | 0.00 | 0.18 | 0.00 | 26 | 1015.3 |
| 20260507182003 | 65 | 275 | 7.0 | 17.4 | 0.00 | 0.19 | 0.00 | 28 | 1015.6 |
| 20260507181524 | 65 | 249 | 13.0 | 20.0 | 0.00 | 0.19 | 0.00 | 31 | 1015.6 |
| 20260507181002 | 64 | 264 | 11.3 | 20.0 | 0.00 | 0.19 | 0.00 | 31 | 1015.9 |
| 20260507180503 | 64 | 250 | 11.3 | 19.1 | 0.00 | 0.20 | 0.00 | 32 | 1015.9 |
| 20260507180002 | 64 | 263 | 13.9 | 21.7 | 0.00 | 0.20 | 0.00 | 30 | 1016.0 |
| 20260507175503 | 63 | 263 | 11.3 | 21.7 | 0.00 | 0.20 | 0.00 | 31 | 1016.2 |
| 20260507175045 | 63 | 256 | 13.9 | 21.7 | 0.00 | 0.20 | 0.00 | 32 | 1016.3 |
| 20260507174003 | 63 | 271 | 13.0 | 21.7 | 0.00 | 0.20 | 0.00 | 31 | 1016.7 |
| 20260507173502 | 62 | 266 | 14.8 | 26.1 | 0.00 | 0.20 | 0.00 | 31 | 1016.8 |
| 20260507173003 | 62 | 266 | 17.4 | 26.1 | 0.00 | 0.20 | 0.00 | 30 | 1016.9 |
| 20260507172503 | 62 | 253 | 13.0 | 23.5 | 0.00 | 0.20 | 0.00 | 33 | 1016.8 |
| 20260507172002 | 61 | 258 | 15.6 | 23.5 | 0.00 | 0.20 | 0.00 | 32 | 1016.9 |
| 20260507171503 | 61 | 254 | 13.9 | 23.5 | 0.00 | 0.21 | 0.00 | 35 | 1017.1 |
| 20260507171003 | 61 | 248 | 15.6 | 24.3 | 0.00 | 0.21 | 0.00 | 34 | 1017.2 |
| 20260507170503 | 60 | 245 | 16.5 | 26.1 | 0.00 | 0.21 | 0.00 | 36 | 1017.3 |
| 20260507170003 | 60 | 245 | 18.2 | 26.1 | 0.00 | 0.22 | 0.00 | 35 | 1017.3 |
| 20260507165502 | 60 | 247 | 17.4 | 24.3 | 0.00 | 0.22 | 0.00 | 35 | 1017.4 |
| 20260507165003 | 60 | 246 | 15.6 | 21.7 | 0.00 | 0.22 | 0.00 | 36 | 1017.5 |
| 20260507164502 | 60 | 246 | 14.8 | 24.3 | 0.00 | 0.22 | 0.00 | 36 | 1017.6 |
| 20260507164003 | 59 | 255 | 13.0 | 24.3 | 0.00 | 0.23 | 0.00 | 38 | 1017.7 |
| 20260507163524 | 59 | 265 | 13.0 | 24.3 | 0.00 | 0.23 | 0.00 | 38 | 1017.8 |
| 20260507163003 | 58 | 251 | 15.6 | 23.5 | 0.00 | 0.24 | 0.00 | 36 | 1017.9 |
| 20260507162503 | 58 | 258 | 17.4 | 23.5 | 0.00 | 0.24 | 0.00 | 37 | 1018.0 |
| 20260507162003 | 58 | 251 | 15.6 | 25.2 | 0.00 | 0.25 | 0.00 | 38 | 1018.0 |
| 20260507161502 | 57 | 258 | 13.0 | 26.1 | 0.00 | 0.26 | 0.00 | 38 | 1018.2 |
| 20260507161024 | 57 | 256 | 20.0 | 26.1 | 0.00 | 0.27 | 0.00 | 38 | 1018.1 |
| 20260507160524 | 56 | 244 | 14.8 | 24.3 | 0.00 | 0.28 | 0.00 | 40 | 1018.2 |
| 20260507160003 | 56 | 248 | 15.6 | 22.6 | 0.00 | 0.29 | 0.00 | 39 | 1018.3 |
| 20260507155503 | 56 | 262 | 15.6 | 24.3 | 0.00 | 0.30 | 0.00 | 40 | 1018.3 |
| 20260507155003 | 55 | 249 | 15.6 | 26.1 | 0.00 | 0.31 | 0.00 | 41 | 1018.4 |
| 20260507154524 | 55 | 254 | 17.4 | 26.9 | 0.00 | 0.31 | 0.00 | 41 | 1018.4 |
| 20260507154002 | 55 | 259 | 19.1 | 26.9 | 0.00 | 0.31 | 0.00 | 41 | 1018.4 |
| 20260507153503 | 54 | 254 | 15.6 | 26.1 | 0.00 | 0.31 | 0.00 | 43 | 1018.6 |
| 20260507153003 | 53 | 263 | 19.1 | 26.1 | 0.00 | 0.31 | 0.00 | 42 | 1018.4 |
| 20260507152503 | 53 | 254 | 18.2 | 25.2 | 0.00 | 0.31 | 0.00 | 43 | 1018.5 |
| 20260507152003 | 53 | 258 | 13.0 | 26.1 | 0.00 | 0.31 | 0.00 | 42 | 1018.7 |
| 20260507151003 | 52 | 257 | 14.8 | 25.2 | 0.00 | 0.31 | 0.00 | 43 | 1018.7 |
| 20260507150502 | 52 | 256 | 13.9 | 29.5 | 0.00 | 0.31 | 0.00 | 41 | 1019.0 |
| 20260507150003 | 52 | 254 | 17.4 | 30.4 | 0.00 | 0.31 | 0.00 | 41 | 1019.1 |
| 20260507145502 | 51 | 255 | 18.2 | 30.4 | 0.00 | 0.31 | 0.00 | 40 | 1019.1 |
| 20260507145003 | 51 | 263 | 17.4 | 23.5 | 0.00 | 0.31 | 0.00 | 42 | 1019.1 |
| 20260507144502 | 50 | 256 | 13.9 | 20.9 | 0.00 | 0.31 | 0.00 | 43 | 1019.1 |
| 20260507144003 | 50 | 251 | 11.3 | 24.3 | 0.00 | 0.31 | 0.00 | 46 | 1019.1 |
| 20260507143503 | 49 | 247 | 14.8 | 24.3 | 0.00 | 0.31 | 0.00 | 46 | 1019.2 |
| 20260507143002 | 49 | 251 | 13.9 | 26.1 | 0.00 | 0.31 | 0.00 | 48 | 1019.2 |
| 20260507142503 | 48 | 245 | 13.0 | 26.1 | 0.00 | 0.31 | 0.00 | 50 | 1019.3 |
| 20260507142003 | 48 | 247 | 17.4 | 22.6 | 0.00 | 0.31 | 0.00 | 49 | 1019.1 |
| 20260507141503 | 47 | 249 | 13.0 | 23.5 | 0.00 | 0.31 | 0.00 | 50 | 1019.2 |
| 20260507141003 | 47 | 251 | 13.9 | 23.5 | 0.00 | 0.31 | 0.00 | 51 | 1019.3 |
| 20260507140502 | 46 | 257 | 13.9 | 22.6 | 0.00 | 0.31 | 0.00 | 52 | 1019.3 |
| 20260507140003 | 46 | 255 | 13.9 | 19.1 | 0.00 | 0.31 | 0.00 | 52 | 1019.4 |
| 20260507135502 | 45 | 254 | 12.2 | 19.1 | 0.00 | 0.31 | 0.00 | 53 | 1019.6 |
| 20260507135003 | 45 | 258 | 13.0 | 19.1 | 0.00 | 0.31 | 0.00 | 54 | 1019.7 |
| 20260507134502 | 44 | 260 | 11.3 | 17.4 | 0.00 | 0.31 | 0.00 | 56 | 1019.7 |
| 20260507134003 | 44 | 261 | 13.0 | 20.0 | 0.00 | 0.31 | 0.00 | 56 | 1019.8 |
| 20260507133502 | 44 | 261 | 13.9 | 20.0 | 0.00 | 0.31 | 0.00 | 56 | 1019.8 |
| 20260507133002 | 43 | 261 | 9.6 | 13.9 | 0.00 | 0.31 | 0.00 | 57 | 1019.9 |
| 20260507132503 | 43 | 251 | 7.0 | 15.6 | 0.00 | 0.31 | 0.00 | 58 | 1019.8 |
| 20260507132003 | 42 | 259 | 11.3 | 15.6 | 0.00 | 0.31 | 0.00 | 59 | 1019.7 |
| 20260507131502 | 42 | 232 | 7.8 | 13.0 | 0.00 | 0.31 | 0.00 | 61 | 1019.7 |
| 20260507131003 | 41 | 260 | 7.0 | 14.8 | 0.00 | 0.31 | 0.00 | 61 | 1019.9 |
| 20260507130502 | 41 | 260 | 8.7 | 14.8 | 0.00 | 0.31 | 0.00 | 63 | 1019.7 |
| 20260507130003 | 40 | 262 | 8.7 | 13.9 | 0.00 | 0.31 | 0.00 | 65 | 1019.8 |
| 20260507125502 | 40 | 258 | 7.8 | 13.0 | 0.00 | 0.31 | 0.00 | 65 | 1019.7 |
| 20260507125003 | 40 | 261 | 8.7 | 16.5 | 0.00 | 0.31 | 0.00 | 65 | 1019.7 |
| 20260507124502 | 40 | 262 | 11.3 | 16.5 | 0.00 | 0.31 | 0.00 | 65 | 1019.6 |
| 20260507124002 | 39 | 262 | 11.3 | 15.6 | 0.00 | 0.31 | 0.00 | 66 | 1019.5 |
| 20260507123503 | 39 | 259 | 10.4 | 15.6 | 0.00 | 0.32 | 0.00 | 67 | 1019.6 |
| 20260507123002 | 39 | 253 | 10.4 | 15.6 | 0.00 | 0.32 | 0.00 | 68 | 1019.6 |
| 20260507122503 | 38 | 253 | 8.7 | 15.6 | 0.00 | 0.32 | 0.00 | 68 | 1019.6 |
| 20260507122004 | 38 | 250 | 10.4 | 15.6 | 0.00 | 0.32 | 0.00 | 68 | 1019.6 |
| 20260507121503 | 39 | 251 | 8.7 | 15.6 | 0.00 | 0.32 | 0.00 | 68 | 1019.6 |
| 20260507121003 | 38 | 261 | 9.6 | 17.4 | 0.00 | 0.32 | 0.00 | 68 | 1019.5 |
| 20260507120545 | 38 | 260 | 10.4 | 17.4 | 0.00 | 0.32 | 0.00 | 69 | 1019.5 |
| 20260507120002 | 38 | 259 | 8.7 | 18.2 | 0.00 | 0.32 | 0.00 | 69 | 1019.4 |
| 20260507115503 | 38 | 261 | 11.3 | 18.2 | 0.00 | 0.33 | 0.00 | 70 | 1019.4 |
| 20260507115024 | 37 | 261 | 11.3 | 16.5 | 0.00 | 0.33 | 0.00 | 72 | 1019.4 |
| 20260507114503 | 38 | 260 | 8.7 | 18.2 | 0.00 | 0.33 | 0.00 | 71 | 1019.5 |
| 20260507114002 | 38 | 258 | 10.4 | 19.1 | 0.00 | 0.33 | 0.00 | 71 | 1019.6 |
| 20260507113503 | 38 | 260 | 12.2 | 19.1 | 0.00 | 0.33 | 0.00 | 72 | 1019.4 |
| 20260507113003 | 38 | 264 | 11.3 | 20.0 | 0.00 | 0.33 | 0.00 | 73 | 1019.5 |
| 20260507112524 | 38 | 258 | 11.3 | 20.0 | 0.00 | 0.33 | 0.00 | 75 | 1019.4 |
| 20260507112002 | 37 | 260 | 12.2 | 17.4 | 0.00 | 0.33 | 0.00 | 77 | 1019.4 |
| 20260507111503 | 36 | 262 | 7.8 | 14.8 | 0.00 | 0.33 | 0.00 | 79 | 1019.5 |
| 20260507111002 | 36 | 273 | 6.1 | 12.2 | 0.00 | 0.33 | 0.00 | 81 | 1019.6 |
| 20260507110503 | 35 | 281 | 3.5 | 7.0 | 0.00 | 0.33 | 0.00 | 81 | 1019.7 |
| 20260507110002 | 35 | 266 | 2.6 | 6.1 | 0.00 | 0.33 | 0.00 | 82 | 1019.8 |
| 20260507105503 | 35 | 285 | 0.0 | 1.7 | 0.00 | 0.33 | 0.00 | 82 | 1019.9 |
| 20260507105002 | 35 | 285 | 0.9 | 2.6 | 0.00 | 0.33 | 0.00 | 83 | 1020.0 |
| 20260507104503 | 35 | 285 | 0.0 | 2.6 | 0.00 | 0.33 | 0.00 | 84 | 1020.0 |
| 20260507104003 | 35 | 277 | 0.0 | 1.7 | 0.00 | 0.33 | 0.00 | 85 | 1020.1 |
| 20260507103503 | 34 | 271 | 0.0 | 1.7 | 0.00 | 0.33 | 0.00 | 85 | 1020.3 |
| 20260507103023 | 34 | 268 | 0.0 | 1.7 | 0.00 | 0.33 | 0.00 | 86 | 1020.3 |
| 20260507102503 | 34 | 268 | 0.9 | 1.7 | 0.00 | 0.33 | 0.00 | 86 | 1020.4 |
| 20260507102003 | 34 | 269 | 0.0 | 1.7 | 0.00 | 0.33 | 0.00 | 87 | 1020.4 |
| 20260507101503 | 34 | 270 | 0.0 | 1.7 | 0.00 | 0.33 | 0.00 | 87 | 1020.4 |
| 20260507101003 | 34 | 270 | 0.0 | 0.9 | 0.00 | 0.33 | 0.00 | 87 | 1020.4 |
| 20260507100502 | 34 | 269 | 0.0 | 0.9 | 0.00 | 0.33 | 0.00 | 88 | 1020.5 |
| 20260507100003 | 34 | 268 | 0.0 | 1.7 | 0.00 | 0.33 | 0.00 | 88 | 1020.5 |
| 20260507095503 | 33 | 266 | 0.0 | 1.7 | 0.00 | 0.33 | 0.00 | 89 | 1020.4 |
| 20260507095003 | 33 | 263 | 0.0 | 2.6 | 0.00 | 0.33 | 0.00 | 89 | 1020.4 |
| 20260507094503 | 33 | 263 | 0.0 | 3.5 | 0.00 | 0.33 | 0.00 | 89 | 1020.5 |
| 20260507094003 | 33 | 261 | 1.7 | 3.5 | 0.00 | 0.33 | 0.00 | 90 | 1020.6 |
| 20260507093502 | 32 | 265 | 1.7 | 3.5 | 0.00 | 0.33 | 0.00 | 90 | 1020.6 |
| 20260507093003 | 31 | 286 | 0.9 | 1.7 | 0.00 | 0.33 | 0.00 | 89 | 1020.7 |
| 20260507092503 | 32 | 287 | 0.0 | 1.7 | 0.00 | 0.33 | 0.00 | 90 | 1020.8 |
| 20260507092002 | 32 | 287 | 0.0 | 1.7 | 0.00 | 0.33 | 0.00 | 90 | 1020.7 |
| 20260507091503 | 31 | 284 | 0.0 | 1.7 | 0.00 | 0.33 | 0.00 | 90 | 1020.7 |
| 20260507091002 | 31 | 269 | 0.0 | 1.7 | 0.00 | 0.33 | 0.00 | 90 | 1020.8 |
| 20260507090503 | 31 | 254 | 0.9 | 1.7 | 0.00 | 0.33 | 0.00 | 90 | 1020.9 |
| 20260507090002 | 31 | 243 | 0.9 | 1.7 | 0.00 | 0.33 | 0.00 | 90 | 1021.0 |
| 20260507085503 | 31 | 236 | 0.0 | 0.0 | 0.00 | 0.33 | 0.00 | 89 | 1021.0 |
| 20260507085045 | 31 | 236 | 0.0 | 0.0 | 0.00 | 0.33 | 0.00 | 89 | 1021.0 |
| 20260507084502 | 31 | 236 | 0.0 | 0.0 | 0.00 | 0.33 | 0.00 | 89 | 1021.1 |
| 20260507084003 | 31 | 236 | 0.0 | 0.0 | 0.00 | 0.33 | 0.00 | 89 | 1021.0 |
| 20260507083523 | 31 | 236 | 0.0 | 0.0 | 0.00 | 0.33 | 0.00 | 89 | 1020.9 |
| 20260507083004 | 31 | 236 | 0.0 | 0.0 | 0.00 | 0.33 | 0.00 | 89 | 1020.9 |
| 20260507082502 | 31 | 236 | 0.0 | 0.0 | 0.00 | 0.33 | 0.00 | 89 | 1020.9 |
| 20260507082003 | 31 | 236 | 0.0 | 0.0 | 0.00 | 0.33 | 0.00 | 89 | 1020.8 |
| 20260507081502 | 31 | 236 | 0.0 | 0.0 | 0.00 | 0.33 | 0.00 | 89 | 1020.7 |
| 20260507081003 | 31 | 236 | 0.0 | 0.0 | 0.00 | 0.33 | 0.00 | 89 | 1020.8 |
| 20260507080502 | 31 | 236 | 0.0 | 0.0 | 0.00 | 0.33 | 0.00 | 89 | 1021.1 |
| 20260507080003 | 32 | 236 | 0.0 | 0.0 | 0.00 | 0.33 | 0.00 | 89 | 1021.1 |
| 20260507075503 | 32 | 236 | 0.0 | 0.0 | 0.00 | 0.33 | 0.00 | 89 | 1021.2 |
| 20260507075003 | 32 | 236 | 0.0 | 0.0 | 0.00 | 0.33 | 0.00 | 89 | 1021.2 |
| 20260507074523 | 32 | 236 | 0.0 | 0.0 | 0.00 | 0.33 | 0.00 | 89 | 1021.1 |
| 20260507074003 | 31 | 236 | 0.0 | 0.0 | 0.00 | 0.33 | 0.00 | 89 | 1021.2 |
| 20260507073502 | 31 | 236 | 0.0 | 0.0 | 0.00 | 0.33 | 0.00 | 88 | 1021.3 |
| 20260507073003 | 31 | 236 | 0.0 | 0.0 | 0.00 | 0.33 | 0.00 | 88 | 1021.3 |
| 20260507072502 | 31 | 236 | 0.0 | 0.0 | 0.00 | 0.33 | 0.00 | 88 | 1021.2 |
| 20260507072024 | 31 | 236 | 0.0 | 0.0 | 0.00 | 0.33 | 0.00 | 88 | 1021.2 |
| 20260507071524 | 31 | 236 | 0.0 | 0.0 | 0.00 | 0.33 | 0.00 | 88 | 1021.2 |
| 20260507071003 | 31 | 236 | 0.0 | 0.0 | 0.00 | 0.33 | 0.00 | 87 | 1021.2 |
| 20260507070503 | 31 | 236 | 0.0 | 0.0 | 0.00 | 0.34 | 0.00 | 87 | 1021.1 |
| 20260507070004 | 32 | 236 | 0.0 | 0.0 | 0.00 | 0.34 | 0.00 | 86 | 1021.2 |
| 20260507065503 | 32 | 236 | 0.0 | 0.0 | 0.00 | 0.34 | 0.00 | 86 | 1021.1 |
| 20260507065003 | 33 | 236 | 0.0 | 0.0 | 0.00 | 0.34 | 0.00 | 86 | 1021.2 |
| 20260507064502 | 33 | 236 | 0.0 | 0.0 | 0.00 | 0.34 | 0.00 | 86 | 1021.3 |
| 20260507064024 | 33 | 236 | 0.0 | 0.0 | 0.00 | 0.35 | 0.00 | 86 | 1021.1 |
| 20260507063503 | 33 | 236 | 0.0 | 0.0 | 0.00 | 0.35 | 0.00 | 86 | 1021.1 |
| 20260507063002 | 33 | 236 | 0.0 | 0.0 | 0.00 | 0.36 | 0.00 | 86 | 1021.1 |
| 20260507062503 | 33 | 236 | 0.0 | 0.0 | 0.00 | 0.36 | 0.00 | 86 | 1021.2 |
| 20260507062003 | 33 | 236 | 0.0 | 0.0 | 0.00 | 0.37 | 0.00 | 86 | 1021.1 |
| 20260507061503 | 34 | 236 | 0.0 | 0.0 | 0.00 | 0.37 | 0.00 | 86 | 1021.0 |
| 20260507061002 | 34 | 236 | 0.0 | 0.0 | 0.00 | 0.38 | 0.00 | 85 | 1021.1 |
| 20260507060503 | 34 | 236 | 0.0 | 0.0 | 0.00 | 0.38 | 0.00 | 85 | 1021.1 |
| 20260507060024 | 34 | 236 | 0.0 | 0.0 | 0.00 | 0.39 | 0.00 | 85 | 1021.0 |
| 20260507055503 | 34 | 236 | 0.0 | 0.0 | 0.00 | 0.39 | 0.39 | 85 | 1021.0 |
| 20260507055002 | 34 | 236 | 0.0 | 0.0 | 0.00 | 0.39 | 0.39 | 84 | 1021.0 |
| 20260507054503 | 34 | 236 | 0.0 | 0.0 | 0.00 | 0.39 | 0.39 | 84 | 1020.9 |
| 20260507054002 | 34 | 236 | 0.0 | 0.0 | 0.00 | 0.39 | 0.39 | 84 | 1020.9 |
| 20260507053503 | 34 | 236 | 0.0 | 0.0 | 0.00 | 0.39 | 0.39 | 84 | 1020.9 |
| 20260507053003 | 34 | 236 | 0.0 | 0.0 | 0.00 | 0.39 | 0.39 | 84 | 1020.9 |
| 20260507052524 | 34 | 236 | 0.0 | 0.0 | 0.00 | 0.40 | 0.39 | 84 | 1021.0 |
| 20260507052024 | 35 | 236 | 0.0 | 0.0 | 0.00 | 0.40 | 0.39 | 83 | 1021.0 |
| 20260507051524 | 35 | 236 | 0.0 | 0.0 | 0.00 | 0.40 | 0.39 | 83 | 1021.2 |
| 20260507051003 | 35 | 236 | 0.0 | 0.0 | 0.00 | 0.40 | 0.39 | 83 | 1021.1 |
| 20260507050503 | 35 | 236 | 0.0 | 0.0 | 0.00 | 0.40 | 0.39 | 83 | 1021.1 |
| 20260507050002 | 35 | 236 | 0.0 | 0.0 | 0.00 | 0.40 | 0.39 | 83 | 1021.1 |
| 20260507045524 | 35 | 236 | 0.0 | 0.0 | 0.00 | 0.40 | 0.39 | 83 | 1021.1 |
| 20260507045003 | 35 | 236 | 0.0 | 0.0 | 0.00 | 0.40 | 0.39 | 82 | 1021.1 |
| 20260507044503 | 36 | 236 | 0.0 | 0.0 | 0.00 | 0.40 | 0.39 | 82 | 1021.1 |
| 20260507044003 | 36 | 236 | 0.0 | 0.0 | 0.00 | 0.40 | 0.39 | 82 | 1021.1 |
| 20260507043503 | 36 | 236 | 0.0 | 0.0 | 0.00 | 0.40 | 0.39 | 81 | 1021.0 |
| 20260507043003 | 36 | 236 | 0.0 | 0.0 | 0.00 | 0.40 | 0.39 | 81 | 1021.0 |
| 20260507042503 | 36 | 236 | 0.0 | 0.0 | 0.00 | 0.40 | 0.39 | 81 | 1021.1 |
| 20260507042002 | 36 | 236 | 0.0 | 0.0 | 0.00 | 0.40 | 0.39 | 81 | 1021.1 |
| 20260507041503 | 37 | 236 | 0.0 | 0.0 | 0.00 | 0.40 | 0.39 | 80 | 1021.1 |
| 20260507041003 | 37 | 236 | 0.0 | 0.0 | 0.00 | 0.40 | 0.39 | 80 | 1020.9 |
| 20260507040502 | 37 | 236 | 0.0 | 0.0 | 0.00 | 0.40 | 0.39 | 80 | 1020.9 |
| 20260507040003 | 37 | 236 | 0.0 | 0.0 | 0.00 | 0.40 | 0.39 | 80 | 1020.8 |
| 20260507035502 | 37 | 236 | 0.0 | 0.0 | 0.00 | 0.40 | 0.39 | 80 | 1020.9 |
| 20260507035003 | 37 | 236 | 0.0 | 0.0 | 0.00 | 0.40 | 0.39 | 80 | 1020.9 |
| 20260507034523 | 37 | 236 | 0.0 | 0.0 | 0.00 | 0.40 | 0.39 | 80 | 1020.8 |
| 20260507034003 | 38 | 236 | 0.0 | 0.0 | 0.00 | 0.40 | 0.39 | 80 | 1021.0 |
| 20260507033502 | 38 | 236 | 0.0 | 0.0 | 0.00 | 0.40 | 0.39 | 79 | 1021.0 |
| 20260507033003 | 38 | 236 | 0.0 | 0.0 | 0.00 | 0.40 | 0.39 | 79 | 1020.9 |
| 20260507032502 | 38 | 236 | 0.0 | 0.0 | 0.00 | 0.40 | 0.39 | 80 | 1020.9 |
| 20260507032003 | 38 | 236 | 0.0 | 0.0 | 0.00 | 0.40 | 0.39 | 79 | 1020.9 |
| 20260507031502 | 38 | 236 | 0.0 | 0.0 | 0.00 | 0.40 | 0.39 | 79 | 1020.9 |
| 20260507031003 | 38 | 236 | 0.0 | 0.9 | 0.00 | 0.40 | 0.39 | 79 | 1020.9 |
| 20260507030503 | 39 | 236 | 0.0 | 1.7 | 0.00 | 0.40 | 0.39 | 78 | 1020.9 |
| 20260507030002 | 39 | 235 | 0.9 | 1.7 | 0.00 | 0.40 | 0.39 | 77 | 1020.8 |
| 20260507025503 | 39 | 236 | 0.0 | 1.7 | 0.00 | 0.40 | 0.39 | 77 | 1020.8 |
| 20260507025002 | 39 | 235 | 0.9 | 1.7 | 0.00 | 0.40 | 0.39 | 76 | 1020.8 |
| 20260507024503 | 39 | 235 | 0.9 | 1.7 | 0.00 | 0.40 | 0.39 | 76 | 1020.7 |
| 20260507024002 | 40 | 235 | 0.9 | 1.7 | 0.00 | 0.40 | 0.39 | 76 | 1020.7 |
| 20260507023503 | 40 | 235 | 0.9 | 1.7 | 0.00 | 0.40 | 0.39 | 76 | 1020.6 |
| 20260507023003 | 40 | 235 | 0.9 | 1.7 | 0.00 | 0.40 | 0.39 | 76 | 1020.6 |
| 20260507022545 | 40 | 236 | 0.0 | 0.0 | 0.00 | 0.40 | 0.39 | 76 | 1020.6 |
| 20260507022002 | 41 | 236 | 0.0 | 0.0 | 0.00 | 0.40 | 0.39 | 76 | 1020.6 |
| 20260507021503 | 41 | 236 | 0.0 | 0.0 | 0.00 | 0.40 | 0.39 | 76 | 1020.6 |
| 20260507021002 | 41 | 236 | 0.0 | 0.0 | 0.00 | 0.40 | 0.39 | 75 | 1020.6 |
| 20260507020524 | 42 | 236 | 0.0 | 0.0 | 0.00 | 0.40 | 0.39 | 75 | 1020.5 |
| 20260507020024 | 42 | 236 | 0.0 | 0.0 | 0.00 | 0.40 | 0.39 | 74 | 1020.5 |
| 20260507015503 | 42 | 236 | 0.0 | 0.0 | 0.00 | 0.40 | 0.39 | 74 | 1020.5 |
| 20260507015003 | 42 | 236 | 0.0 | 0.0 | 0.00 | 0.40 | 0.39 | 74 | 1020.6 |
| 20260507014502 | 42 | 236 | 0.0 | 0.0 | 0.00 | 0.40 | 0.39 | 73 | 1020.6 |
| 20260507014003 | 42 | 236 | 0.0 | 1.7 | 0.00 | 0.40 | 0.39 | 73 | 1020.6 |
| 20260507013503 | 42 | 235 | 0.0 | 1.7 | 0.00 | 0.40 | 0.39 | 72 | 1020.5 |
| 20260507013003 | 42 | 235 | 0.0 | 1.7 | 0.00 | 0.40 | 0.39 | 72 | 1020.6 |
| 20260507012503 | 42 | 235 | 0.9 | 1.7 | 0.00 | 0.40 | 0.39 | 72 | 1020.6 |
| 20260507012003 | 42 | 235 | 0.0 | 1.7 | 0.00 | 0.40 | 0.39 | 72 | 1020.5 |
| 20260507011524 | 42 | 235 | 0.9 | 1.7 | 0.00 | 0.40 | 0.39 | 71 | 1020.5 |
| 20260507011023 | 43 | 235 | 0.9 | 2.6 | 0.00 | 0.40 | 0.39 | 71 | 1020.4 |
| 20260507010503 | 43 | 236 | 0.0 | 2.6 | 0.00 | 0.40 | 0.39 | 70 | 1020.5 |
| 20260507010002 | 44 | 235 | 0.9 | 2.6 | 0.00 | 0.40 | 0.39 | 71 | 1020.3 |
| 20260507005503 | 44 | 235 | 0.9 | 2.6 | 0.00 | 0.40 | 0.39 | 71 | 1020.4 |
| 20260507005003 | 44 | 236 | 0.0 | 0.0 | 0.00 | 0.40 | 0.39 | 72 | 1020.3 |
| 20260507004523 | 44 | 236 | 0.0 | 0.0 | 0.00 | 0.40 | 0.39 | 72 | 1020.4 |
| 20260507004024 | 44 | 236 | 0.0 | 0.9 | 0.00 | 0.41 | 0.39 | 73 | 1020.4 |
| 20260507003502 | 44 | 236 | 0.0 | 2.6 | 0.00 | 0.41 | 0.39 | 75 | 1020.4 |
| 20260507003003 | 44 | 235 | 0.9 | 2.6 | 0.00 | 0.41 | 0.39 | 76 | 1020.4 |
| 20260507002503 | 44 | 236 | 0.0 | 0.9 | 0.00 | 0.41 | 0.39 | 75 | 1020.4 |
| 20260507002024 | 44 | 237 | 0.0 | 2.6 | 0.00 | 0.41 | 0.39 | 77 | 1020.4 |
| 20260507001503 | 44 | 236 | 0.0 | 2.6 | 0.00 | 0.41 | 0.39 | 78 | 1020.5 |
| 20260507001002 | 44 | 236 | 0.9 | 1.7 | 0.00 | 0.41 | 0.39 | 78 | 1020.4 |
| 20260507000503 | 44 | 236 | 0.9 | 1.7 | 0.00 | 0.41 | 0.39 | 79 | 1020.6 |
| 20260507000003 | 44 | 236 | 0.0 | 2.6 | 0.00 | 0.42 | 0.39 | 78 | 1020.5 |
| 20260506235503 | 44 | 237 | 0.9 | 2.6 | 0.00 | 0.43 | 0.39 | 80 | 1020.6 |
| 20260506235002 | 44 | 237 | 0.9 | 2.6 | 0.00 | 0.44 | 0.39 | 82 | 1020.4 |
| 20260506234503 | 44 | 237 | 0.0 | 0.9 | 0.00 | 0.45 | 0.39 | 83 | 1020.5 |
| 20260506234002 | 44 | 238 | 0.0 | 3.5 | 0.00 | 0.46 | 0.39 | 84 | 1020.4 |
| 20260506233503 | 43 | 237 | 0.9 | 3.5 | 0.00 | 0.48 | 0.39 | 84 | 1020.3 |
| 20260506233003 | 44 | 241 | 0.0 | 3.5 | 0.00 | 0.48 | 0.39 | 86 | 1020.3 |
| 20260506232502 | 43 | 241 | 0.9 | 3.5 | 0.00 | 0.49 | 0.39 | 87 | 1020.4 |
| 20260506232003 | 43 | 247 | 1.7 | 2.6 | 0.00 | 0.50 | 0.39 | 89 | 1020.4 |
| 20260506231503 | 43 | 247 | 0.9 | 2.6 | 0.00 | 0.51 | 0.39 | 90 | 1020.4 |
| 20260506231003 | 43 | 248 | 0.0 | 1.7 | 0.00 | 0.51 | 0.39 | 90 | 1020.5 |
| 20260506230502 | 42 | 247 | 0.0 | 3.5 | 0.00 | 0.51 | 0.39 | 91 | 1020.5 |
| 20260506230003 | 42 | 266 | 1.7 | 3.5 | 0.06 | 0.51 | 0.39 | 91 | 1020.5 |
| 20260506225502 | 41 | 280 | 1.7 | 2.6 | 0.06 | 0.51 | 0.39 | 91 | 1020.5 |
| 20260506225003 | 41 | 283 | 0.9 | 2.6 | 0.06 | 0.51 | 0.39 | 91 | 1020.5 |
| 20260506224502 | 40 | 285 | 0.9 | 2.6 | 0.05 | 0.50 | 0.38 | 91 | 1020.6 |
| 20260506224003 | 40 | 288 | 0.9 | 2.6 | 0.05 | 0.50 | 0.38 | 91 | 1020.6 |
| 20260506223502 | 40 | 294 | 0.9 | 2.6 | 0.05 | 0.50 | 0.38 | 92 | 1020.6 |
| 20260506223003 | 39 | 294 | 0.9 | 2.6 | 0.04 | 0.49 | 0.37 | 92 | 1020.7 |
| 20260506222502 | 39 | 294 | 0.0 | 2.6 | 0.04 | 0.49 | 0.37 | 91 | 1020.7 |
| 20260506222024 | 38 | 296 | 0.9 | 2.6 | 0.03 | 0.48 | 0.36 | 92 | 1020.7 |
| 20260506221504 | 38 | 298 | 1.7 | 2.6 | 0.03 | 0.48 | 0.36 | 91 | 1020.6 |
| 20260506221024 | 37 | 298 | 0.9 | 2.6 | 0.02 | 0.47 | 0.35 | 91 | 1020.5 |
| 20260506220503 | 37 | 298 | 0.9 | 2.6 | 0.01 | 0.46 | 0.34 | 91 | 1020.5 |
| 20260506220003 | 36 | 298 | 1.7 | 2.6 | 0.05 | 0.45 | 0.33 | 91 | 1020.7 |
| 20260506215524 | 35 | 299 | 1.7 | 2.6 | 0.04 | 0.44 | 0.32 | 90 | 1020.7 |
| 20260506215003 | 35 | 299 | 0.9 | 1.7 | 0.03 | 0.43 | 0.31 | 90 | 1020.7 |
| 20260506214503 | 35 | 299 | 0.0 | 0.9 | 0.02 | 0.42 | 0.30 | 89 | 1020.7 |
| 20260506214002 | 35 | 299 | 0.0 | 1.7 | 0.02 | 0.42 | 0.30 | 89 | 1020.8 |
| 20260506213503 | 36 | 299 | 0.0 | 1.7 | 0.02 | 0.42 | 0.30 | 88 | 1020.9 |
| 20260506213003 | 36 | 299 | 0.0 | 1.7 | 0.02 | 0.42 | 0.30 | 88 | 1021.0 |
| 20260506212502 | 37 | 299 | 0.0 | 1.7 | 0.02 | 0.42 | 0.30 | 88 | 1021.2 |
| 20260506212003 | 38 | 295 | 0.0 | 2.6 | 0.02 | 0.42 | 0.30 | 88 | 1021.1 |
| 20260506211523 | 38 | 295 | 0.9 | 2.6 | 0.02 | 0.42 | 0.30 | 88 | 1020.9 |